Location: Unspecified
(0.0000°N, 0.0000°E)
Time: 01:37:21
(UTC+00:00)

Vanguard 3 - All Passes

Search period start: 20 February 2017 00:00
Search period end: 02 March 2017 00:00
Orbit: 508 x 3266 km, 33.4° (Epoch: 18 February)

Date Brightness Start Highest point End Pass type
(mag) Time Alt. Az. Time Alt. Az. Time Alt. Az.
20 Feb - 00:30:02 10° S 00:32:17 14° SE 00:34:53 10° ESE night (unlit)
20 Feb - 02:38:42 10° WSW 02:43:35 61° NNW 02:51:56 10° NE visible
20 Feb - 04:52:37 10° WNW 04:58:15 19° NNW 05:06:11 10° NNE visible
20 Feb - 07:11:24 10° NNW 07:17:08 13° N 07:23:54 10° NNE daylight
20 Feb - 09:26:57 10° NNW 09:39:11 21° NNE 09:52:24 10° ENE daylight
20 Feb - 11:41:08 10° NW 11:59:40 45° NNE 12:15:09 10° E daylight
20 Feb - 13:57:28 10° NW 14:17:09 84° SW 14:29:52 10° SE daylight
20 Feb - 16:19:07 10° W 16:31:39 29° SW 16:39:59 10° SSE daylight
21 Feb - 01:26:00 10° SW 01:30:06 57° SE 01:36:23 10° ENE night (unlit)
21 Feb - 03:37:54 10° WNW 03:42:56 26° NNW 03:50:40 10° NNE visible
21 Feb - 05:55:18 10° NNW 05:59:41 13° N 06:04:55 10° NNE daylight
21 Feb - 08:12:18 10° NNW 08:20:31 15° NNE 08:30:01 10° NE daylight
21 Feb - 10:25:47 10° NNW 10:41:49 32° NNE 10:57:35 10° E daylight
21 Feb - 12:40:31 10° NW 13:00:39 70° NE 13:15:33 10° ESE daylight
21 Feb - 14:59:12 10° WNW 15:16:36 50° SW 15:27:42 10° SSE daylight
21 Feb - 17:26:52 10° WSW 17:31:00 12° SW 17:34:30 10° SSW daylight
22 Feb - 00:14:19 10° S 00:17:04 18° SE 00:20:19 10° E night (unlit)
22 Feb - 02:24:05 10° W 02:28:31 43° NNW 02:35:38 10° NE visible
22 Feb - 04:39:15 10° NW 04:43:21 14° NNW 04:48:36 10° NNE visible
22 Feb - 06:58:10 10° NNW 07:02:15 12° N 07:06:52 10° NNE daylight
22 Feb - 09:11:08 10° NNW 09:23:38 23° NNE 09:37:33 10° ENE daylight
22 Feb - 11:24:35 10° NW 11:43:25 51° NNE 11:59:55 10° ESE daylight
22 Feb - 13:40:53 10° WNW 14:00:50 76° SW 14:14:25 10° SE daylight
22 Feb - 16:03:22 10° W 16:15:51 26° SW 16:24:29 10° SSE daylight
23 Feb - 01:11:01 10° SW 01:14:58 82° SE 01:20:44 10° ENE night (unlit)
23 Feb - 03:23:57 10° WNW 03:28:02 19° NNW 03:33:40 10° NNE visible
23 Feb - 07:57:16 10° NNW 08:05:21 15° NNE 08:14:49 10° NE daylight
23 Feb - 10:09:32 10° NNW 10:25:46 36° NNE 10:42:27 10° E daylight
23 Feb - 12:23:57 10° NW 12:44:14 78° NE 13:00:07 10° ESE daylight
23 Feb - 14:42:57 10° WNW 15:00:26 45° SW 15:12:11 10° SSE daylight
23 Feb - 17:12:21 10° SW 17:15:40 11° SSW 17:18:37 10° SSW daylight
23 Feb - 23:58:47 10° SSW 00:01:54 25° SE 00:05:32 10° E night (unlit)
24 Feb - 02:09:39 10° W 02:13:34 29° NNW 02:19:17 10° NNE visible
24 Feb - 06:45:29 10° N 06:47:23 10° N 06:49:22 10° NNE daylight
24 Feb - 08:55:18 10° NNW 09:07:56 25° NNE 09:22:32 10° ENE daylight
24 Feb - 11:08:10 10° NW 11:27:01 57° NE 11:44:29 10° ESE daylight
24 Feb - 13:24:27 10° WNW 13:44:24 68° SW 13:58:51 10° SE daylight
24 Feb - 15:47:45 10° W 16:00:04 24° SW 16:08:57 10° SSE daylight
25 Feb - 00:56:09 10° WSW 00:59:54 66° NNW 01:05:04 10° NE night (unlit)
25 Feb - 03:10:42 10° NW 03:13:12 13° NNW 03:16:11 10° N visible
25 Feb - 07:42:02 10° NNW 07:50:06 16° NNE 07:59:44 10° NE daylight
25 Feb - 09:53:21 10° NNW 10:09:35 40° NNE 10:27:06 10° E daylight
25 Feb - 12:07:32 10° NW 12:27:40 87° NE 12:44:29 10° SE daylight
25 Feb - 14:26:53 10° W 14:44:14 40° SW 14:56:34 10° SSE daylight
25 Feb - 16:58:00 10° SW 17:00:26 11° SSW 17:02:41 10° SSW daylight
25 Feb - 23:43:22 10° SSW 23:46:48 36° SE 23:50:36 10° ENE night (unlit)
26 Feb - 01:55:29 10° WNW 01:58:40 19° NNW 02:02:50 10° NNE night (unlit)
26 Feb - 08:39:27 10° NNW 08:52:07 27° NNE 09:07:22 10° E daylight
26 Feb - 10:51:52 10° NW 11:10:30 64° NE 11:28:51 10° ESE daylight
26 Feb - 13:08:12 10° WNW 13:27:55 61° SW 13:43:08 10° SE daylight
26 Feb - 15:32:18 10° WSW 15:44:20 22° SW 15:53:22 10° SSE daylight
26 Feb - 22:31:43 10° S 22:33:26 12° SSE 22:35:06 10° ESE night (unlit)
27 Feb - 00:41:24 10° WSW 00:44:55 41° NNW 00:49:20 10° NE night (unlit)
27 Feb - 07:26:38 10° N 07:34:46 17° NNE 07:44:41 10° ENE daylight
27 Feb - 09:37:16 10° NNW 09:53:15 45° NE 10:11:32 10° E daylight
27 Feb - 11:51:16 10° NW 12:11:02 85° SW 12:28:41 10° SE daylight
27 Feb - 14:10:59 10° W 14:28:03 37° SW 14:40:53 10° SSE daylight
27 Feb - 16:43:40 10° SSW 16:45:16 10° SSW 16:46:48 10° SSW daylight
27 Feb - 23:28:03 10° SW 23:31:46 58° SE 23:35:35 10° ENE night (unlit)
28 Feb - 01:41:56 10° NW 01:43:47 12° NNW 01:45:55 10° N night (unlit)
28 Feb - 08:23:38 10° NNW 08:36:11 30° NNE 08:51:59 10° E daylight
28 Feb - 10:35:44 10° NW 10:53:53 71° NE 11:13:01 10° ESE daylight
28 Feb - 12:52:07 10° WNW 13:11:24 55° SW 13:27:18 10° SE daylight
28 Feb - 15:16:59 10° WSW 15:28:40 20° SSW 15:37:47 10° SSE daylight
28 Feb - 22:15:20 10° SSW 22:18:27 19° SSE 22:21:12 10° E night (unlit)
01 Mar - 00:26:48 10° W 00:29:56 26° NNW 00:33:33 10° NNE night (unlit)
01 Mar - 07:11:08 10° N 07:19:19 18° NNE 07:29:36 10° ENE daylight
01 Mar - 09:21:18 10° NW 09:36:51 50° NE 09:55:45 10° ESE daylight
01 Mar - 11:35:12 10° WNW 11:54:23 77° SW 12:12:44 10° SE daylight
01 Mar - 13:55:17 10° W 14:11:55 33° SW 14:25:06 10° SSE daylight
01 Mar - 16:28:53 10° SSW 16:30:11 10° SSW 16:31:27 10° SSW daylight
01 Mar - 23:12:49 10° SW 23:16:44 86° NW 23:20:28 10° NE night (unlit)
